User: anonymous   Login
Location: Unspecified
(0.0000°N, 0.0000°E)
Time: 12:58:30
(UTC+00:00)
Language:

Gonets-D1 - Orbit

View from above orbital plane
View from above orbital plane
View from above satellite
View from above satellite

Ground track
Ground track

The orbit data is extracted from the following two-line orbital elements,

1 23789U 96009C   17351.72758906  .00000047  00000-0  20034-3 0  9997
2 23789  82.5769 141.1696 0003898 254.9474 105.1186 12.62597530  6041
Epoch (UTC): 17 December 2017 17:27:43
Eccentricity: 0.0003898
inclination: 82.5769°
perigee height: 1409 km
apogee height: 1415 km
right ascension of ascending node: 141.1696°
argument of perigee: 254.9474°
revolutions per day: 12.62597530
mean anomaly at epoch: 105.1186°
orbit number at epoch: 604

The dashed part of the orbit path shows where the satellite is in the earth's shadow,  

DLR